TimeEST,TemperatureF,Dew PointF,Humidity,Sea Level PressureIn,VisibilityMPH,Wind Direction,Wind SpeedMPH,Gust SpeedMPH,PrecipitationIn,Events,Conditions,WindDirDegrees,DateUTC
12:53 AM,42.1,30.0,62,30.32,-9999.0,Variable,4.6,-,N/A,,Clear,0,2013-01-08 05:53:00
1:53 AM,41.0,30.0,65,30.31,-9999.0,East,3.5,-,N/A,,Clear,100,2013-01-08 06:53:00
2:53 AM,39.9,30.9,70,30.31,-9999.0,Calm,Calm,-,N/A,,Clear,0,2013-01-08 07:53:00
3:53 AM,41.0,30.9,67,30.31,-9999.0,East,3.5,-,N/A,,Overcast,90,2013-01-08 08:53:00
4:53 AM,41.0,32.0,70,30.30,-9999.0,East,3.5,-,N/A,,Overcast,100,2013-01-08 09:53:00
5:48 AM,41.0,32.0,70,30.32,-9999.0,Variable,3.5,-,N/A,,Mostly Cloudy,0,2013-01-08 10:48:00
5:53 AM,41.0,32.0,70,30.32,-9999.0,Calm,Calm,-,N/A,,Mostly Cloudy,0,2013-01-08 10:53:00
6:45 AM,41.0,32.0,70,30.33,-9999.0,Calm,Calm,-,N/A,,Overcast,0,2013-01-08 11:45:00
6:53 AM,41.0,32.0,70,30.33,-9999.0,ENE,3.5,-,N/A,,Overcast,70,2013-01-08 11:53:00
7:11 AM,41.0,32.0,70,30.33,-9999.0,Variable,5.8,-,N/A,,Overcast,0,2013-01-08 12:11:00
7:36 AM,41.0,32.0,70,30.34,10.0,SE,4.6,-,N/A,,Scattered Clouds,130,2013-01-08 12:36:00
7:53 AM,41.0,32.0,70,30.35,10.0,Variable,4.6,-,N/A,,Scattered Clouds,0,2013-01-08 12:53:00
8:35 AM,42.8,33.8,70,30.38,10.0,East,4.6,-,N/A,,Mostly Cloudy,100,2013-01-08 13:35:00
8:53 AM,43.0,33.1,68,30.38,10.0,East,6.9,-,N/A,,Scattered Clouds,100,2013-01-08 13:53:00
9:53 AM,45.0,33.1,63,30.39,10.0,East,10.4,-,N/A,,Partly Cloudy,90,2013-01-08 14:53:00
10:24 AM,46.4,33.8,62,30.40,10.0,Variable,6.9,-,N/A,,Mostly Cloudy,0,2013-01-08 15:24:00
10:53 AM,48.0,34.0,58,30.39,10.0,ESE,9.2,16.1,N/A,,Mostly Cloudy,110,2013-01-08 15:53:00
11:09 AM,48.2,33.8,58,30.39,10.0,East,8.1,17.3,N/A,,Mostly Cloudy,100,2013-01-08 16:09:00
11:16 AM,48.2,35.6,62,30.39,10.0,Variable,5.8,-,N/A,,Mostly Cloudy,0,2013-01-08 16:16:00
11:53 AM,50.0,35.1,57,30.38,10.0,East,9.2,-,N/A,,Overcast,100,2013-01-08 16:53:00
12:53 PM,51.1,36.0,56,30.34,10.0,SE,8.1,19.6,N/A,,Overcast,130,2013-01-08 17:53:00
1:53 PM,51.1,37.0,59,30.33,10.0,East,8.1,-,N/A,,Overcast,90,2013-01-08 18:53:00
2:53 PM,52.0,37.9,59,30.31,10.0,East,8.1,-,N/A,,Overcast,90,2013-01-08 19:53:00
3:53 PM,53.1,39.9,61,30.30,10.0,East,6.9,-,N/A,,Overcast,100,2013-01-08 20:53:00
4:53 PM,53.1,39.9,61,30.32,10.0,Calm,Calm,-,N/A,,Overcast,0,2013-01-08 21:53:00
5:53 PM,52.0,39.9,63,30.32,10.0,Calm,Calm,-,N/A,,Overcast,0,2013-01-08 22:53:00
6:53 PM,51.1,39.9,66,30.32,10.0,East,3.5,-,N/A,,Overcast,80,2013-01-08 23:53:00
7:53 PM,51.1,41.0,68,30.32,10.0,East,5.8,-,N/A,,Overcast,90,2013-01-09 00:53:00
8:53 PM,50.0,43.0,77,30.33,10.0,Variable,5.8,-,N/A,,Overcast,0,2013-01-09 01:53:00
9:53 PM,50.0,43.0,77,30.34,9.0,East,5.8,-,N/A,,Overcast,90,2013-01-09 02:53:00
10:36 PM,48.2,42.8,82,30.34,10.0,Variable,4.6,-,N/A,,Partly Cloudy,0,2013-01-09 03:36:00
10:53 PM,48.0,42.1,80,30.33,10.0,ESE,3.5,-,N/A,,Clear,120,2013-01-09 03:53:00
11:53 PM,46.9,41.0,80,30.34,10.0,Calm,Calm,-,N/A,,Clear,0,2013-01-09 04:53:00